Regional Weather Roundup
Issued by NWS Huntsville, AL

Home | Current Version | Previous Version | Text Only | Print | Product List | Glossary On
Versions: 1 2 3 4 5 6 7 8 9 10 11 12 13 14 15 16 17 18 19 20 21 22 23 24 25 26 27 28 29 30 31 32 33 34 35 36 37 38 39 40 41 42 43 44 45 46 47 48 49 50
000
ASUS44 KHUN 241510
RWRHUN

WEATHER ROUNDUP FOR THE TENNESSEE VALLEY
NATIONAL WEATHER SERVICE HUNTSVILLE AL
1000 AM CDT SUN JUL 24 2016

ALZ001>004-241600-
NORTHWEST ALABAMA

CITY           SKY/WX    TMP DP  RH WIND       PRES   REMARKS
SHOALS AIRPORT SUNNY     88  75  65 MISG      30.04S HX  97
SHOALS TVA RES   N/A     86 N/A N/A MISG        N/A
$$

ALZ005>007-016-241600-
NORTH CENTRAL ALABAMA

CITY           SKY/WX    TMP DP  RH WIND       PRES   REMARKS
CULLMAN AG STN   N/A     84 N/A N/A S5          N/A
DECATUR AP     SUNNY     85  76  74 CALM      30.05S HX  94
HUNTSVILLE AP  PTSUNNY   87  72  60 CALM      30.05S HX  93
MERIDIANVILLE  SUNNY     84  68  58 SE6       30.06S
REDSTONE ARSN  PTSUNNY   84  76  76 SW6       30.05R HX  94
VINEMONT AP    FAIR      86  74  66 S5        30.09R HX  94
$$

ALZ008>010-241600-
NORTHEAST ALABAMA

CITY           SKY/WX    TMP DP  RH WIND       PRES   REMARKS
ALBERTVILLE    SUNNY     82  81  94 CALM      30.07S HX  95
FORT PAYNE     SUNNY     82  70  65 CALM      30.07F
SCOTTSBORO AP  SUNNY     81  75  83 CALM      30.08S
SCOTTSBORO HCN   N/A     77 N/A N/A MISG        N/A
VALLEY HEAD      N/A     82 N/A N/A MISG        N/A
$$

TNZ076-096-097-241600-
SOUTHEASTERN MIDDLE TENNESSEE

CITY           SKY/WX    TMP DP  RH WIND       PRES   REMARKS
TULLAHOMA      SUNNY     84  73  70 SW7       30.08S HX  91
WINCHESTER     SUNNY     84  73  70 E5        30.07S HX  91
$$

...SURROUNDING SITES...

CITY           SKY/WX    TMP DP  RH WIND       PRES   REMARKS
ATLANTA        MOSUNNY   88  71  57 W6        30.08S HX  94
ANNISTON       SUNNY     85  74  69 CALM      30.06F HX  92
BIRMINGHAM     MOSUNNY   87  76  69 SE6       30.07S HX  97
CHATTANOOGA    PTSUNNY   85  69  58 W5        30.07F
DALTON         SUNNY     82  72  69 SE3       30.08R
GADSDEN        SUNNY     83  77  82 SW6       30.06F HX  92
GOLDEN TRNGL   MOSUNNY   86  75  70 SE7       30.01R HX  95
HALEYVILLE     FAIR      86  75  69 SW8       30.08R HX  95
JACKSON TN     MOSUNNY   85  76  74 S6        30.01F HX  94
MEMPHIS        CLOUDY    82  74  76 S9        30.00S
NASHVILLE      MOSUNNY   87  71  58 W5        30.04S HX  93
OXFORD MS      FAIR      82  73  74 W3        30.04S
ROME           SUNNY     83  73  72 E3        30.06F
SAVANNAH       PTSUNNY   86  77  74 SW7G14    30.02S HX  97
TUPELO         CLOUDY    84  76  76 W3        30.02S HX  93
TUSCALOOSA     SUNNY     86  78  77 S5        30.02S HX  98
$$

...GULF COAST WEATHER...

CITY           SKY/WX    TMP DP  RH WIND       PRES   REMARKS
GULFPORT       PTSUNNY   79  76  90 W5        30.01S
PASCAGOULA     PTSUNNY   87  79  76 NE5       30.00S HX 101
MOBILE         PTSUNNY   86  75  69 NE5       30.02S HX  95
GULF SHORES    MOSUNNY   87  77  71 CALM      30.00F HX  98
PENSACOLA      LGT RAIN  87  76  69 NE9       30.00F HX  97
DESTIN         CLOUDY    88  77  69 SE8       30.02S HX 100
PANAMA CITY    MOSUNNY   88  75  66 E8        30.03R HX  97
APPALACHICOLA  MOSUNNY   87  77  72 E8        30.02S HX  99
$$




USA.gov is the U.S. government's official web portal to all federal, state and local government web resources and services.